Hourly Data Report for October 04, 2017

All times are specified in Local Standard Time (LST). Add 1 hour to adjust for Daylight Saving Time where and when it is observed.

SQUAMISH AIRPORT
BRITISH COLUMBIA

49°46'59.550" N
123°09'40.300" W
53.70 m
10476F0
71207
WSK

Download Data

Hourly Data (October 2017)
Hourly Data Report for October 4, 2017
Temp Definition
°C
Dew Point Temp Definition
°C
Rel Hum Definition
%
Wind Dir Definition
10's deg

Wind Spd Definition
km/h
Visibility Definition
km
Stn Press Definition
kPa
Hmdx Definition


Wind Chill Definition


Weather Definition


TIME
00:00 3.8 2.5 91 31 2   101.77     LegendNANA
01:00 5.1 3.6 90 2 4   101.79     LegendNANA
02:00 4.4 3.1 91 4 3   101.78     LegendNANA
03:00 3.3 2.5 94 33 2   101.76     LegendNANA
04:00 3.5 2.8 95 2 3   101.73     LegendNANA
05:00 3.6 2.8 94 1 4   101.70     LegendNANA
06:00 3.6 2.5 92 1 5   101.69     LegendNANA
07:00 4.8 3.0 88 36 5   101.68     LegendNANA
08:00 6.3 3.2 80 15 1   101.68     LegendNANA
09:00 9.5 3.8 68 33 4   101.64     LegendNANA
10:00 12.6 3.4 54 27 4   101.58     LegendNANA
11:00 15.5 3.3 44 31 4   101.51     LegendNANA
12:00 18.3 3.6 38 31 4   101.41     LegendNANA
13:00 19.2 1.2 30 19 7   101.35     LegendNANA
14:00 18.9 1.2 31 14 11   101.35     LegendNANA
15:00 18.6 3.1 36 16 13   101.38     LegendNANA
16:00 15.5 4.9 49 19 4   101.38     LegendNANA
17:00 13.0 6.8 66 5 2   101.40     LegendNANA
18:00 10.4 6.5 77 0 1   101.42     LegendNANA
19:00 9.1 5.8 80 0 1   101.46     LegendNANA
20:00 8.6 5.7 82 5 3   101.49     LegendNANA
21:00 7.7 5.5 86 3 3   101.50     LegendNANA
22:00 6.9 5.0 88 4 3   101.52     LegendNANA
23:00 6.6 5.0 90 4 4   101.56     LegendNANA

Notes on Data Quality.

Legend

  • E = Estimated
  • M = Missing
  • NA = Not Available
  • ‡ = Partner data that is not subject to review by the National Climate Archives
Date modified: